[[{"header":{"parameterUnit":"m.s-1","parameterCategory":1,"la1":30.2992,"la2":30.254,"lo1":-89.0895,"lo2":-89.0443,"dy":0.0025,"dx":0.0025,"nx":19,"ny":19,"refTime":"2026-04-12T09:00:00:Z","depth":0,"parameterNumber":2,"parameterNumberName":"U-component_of_WINDS"},"data":[0,0,0,-0.9591,-0.9593,-0.967,-0.967,-0.9769,-0.977,0,0,0,0,0,0,0,0,0,0,0,-0.9567,-0.9568,-0.9591,-0.9593,-0.967,-0.967,-0.9769,-0.977,0,0,0,0,0,0,0,0,0,0,0,-0.9567,-0.9568,-0.9569,-0.9593,-0.967,-0.967,-0.9768,-0.9711,0,0,0,0,0,0,0,0,0,0,-0.9636,-0.9613,-0.9568,-0.9569,-0.9594,-0.967,-0.967,-0.9708,-0.9714,-0.9734,0,-0.9749,0,-0.9761,-0.9776,-0.9776,0,0,0,-0.9594,-0.9607,-0.9629,-0.9569,-0.9594,-0.967,-0.9635,-0.9711,-0.9719,-0.9742,-0.9751,-0.9755,-0.9763,-0.9777,-0.9777,-0.9884,-0.9884,0,0,-0.959,-0.9581,-0.9624,-0.9633,-0.962,-0.9633,-0.9638,-0.9716,-0.9725,-0.9751,-0.9757,-0.9764,-0.9777,-0.9778,-0.9883,-0.9884,0,0,0,-0.9577,-0.9578,-0.9598,-0.9629,-0.9643,-0.9635,-0.9641,-0.9722,-0.9729,-0.9758,-0.9765,-0.9778,-0.9779,-0.9883,-0.9883,-0.9898,0,0,0,-0.9574,-0.957,-0.9596,-0.9591,-0.9642,-0.9683,-0.9645,-0.9724,-0.9733,-0.9765,-0.9778,-0.978,-0.9882,-0.9883,-0.9896,-0.9907,0,0,0,-0.9563,-0.9569,-0.958,-0.959,-0.9623,-0.9682,-0.9694,-0.9726,-0.9737,-0.9777,-0.978,-0.9882,-0.9883,-0.9895,-0.9904,-0.9933,0,0,0,-0.9548,-0.9591,-0.958,-0.963,-0.9622,-0.9689,-0.9693,-0.9744,-0.9779,-0.9778,-0.9882,-0.9883,-0.9895,-0.9903,-0.9932,-0.9957,-0.9966,0,0,-0.9597,-0.9596,-0.9627,-0.9619,-0.9686,-0.9678,-0.9748,-0.9789,-0.9801,-0.9856,-0.9858,-0.9897,-0.9904,-0.9933,-1.0017,-1.0025,0,0,0,-0.964,-0.9662,-0.9682,-0.9714,-0.9746,-0.9775,-0.9806,-0.9821,-0.9868,-0.9827,-0.9914,-0.9919,-0.9936,-0.9949,-0.9955,-0.9971,-0.9888,-0.9888,-0.9888,-0.9698,-0.9711,-0.9763,-0.9785,-0.9817,-0.9848,-0.9876,-0.9902,-0.9906,-0.9926,-0.9943,-0.9993,-1.0007,-1.0012,-1.0028,-0.9956,-0.9956,-0.9956,-0.9956,-0.9773,-0.9808,-0.981,-0.9862,-0.9876,-0.992,-0.9952,-0.9953,-0.9997,-0.9981,-0.9996,-0.9979,-1.0019,-1.0035,-0.9957,-0.9957,-0.9957,-0.9957,-0.9956,-0.9815,-0.9833,-0.985,-0.99,-0.9936,-0.9957,-0.9999,-1.0009,-1.002,-1.0035,-1.0055,-1.0055,-1.0058,-1.0043,-1.0044,-1.0044,-1.0044,-1.0044,-1.0044,-0.9852,-0.9871,-0.9904,-0.9941,-0.9964,-0.9996,-1.0028,-1.0051,-1.008,-1.0084,-1.0084,-1.0087,-1.002,-1.0004,-1.0047,-1.0047,-1.0046,-1.0046,-1.0046,-0.9927,-0.9912,-0.9964,-0.9987,-1.0032,-1.0069,-1.008,-1.0127,-1.0147,-1.0168,-1.0167,-1.0115,-1.0115,-1.011,-1.0098,-1.0163,-1.0163,-1.0163,-1.0163,-0.9964,-0.9964,-1.0021,-1.0057,-1.0093,-1.0109,-1.017,-1.0195,-1.0219,-1.0233,-1.0224,-1.0207,-1.0202,-1.0206,-1.0199,-1.0187,-1.0274,-1.0274,-1.0274,-1.0012,-1.0017,-1.0066,-1.0088,-1.0124,-1.0155,-1.0212,-1.0255,-1.0279,-1.0279,-1.0244,-1.024,-1.0212,-1.0202,-1.0204,-1.0193,-1.0171,0,0]},{"header":{"parameterUnit":"m.s-1","parameterCategory":1,"la1":30.2992,"la2":30.254,"lo1":-89.0895,"lo2":-89.0443,"dy":0.0025,"dx":0.0025,"nx":19,"ny":19,"refTime":"2026-04-12T09:00:00:Z","depth":0,"parameterNumber":3,"parameterNumberName":"V-component_of_WINDS"},"data":[0,0,0,2.4176,2.4178,2.4294,2.4294,2.4449,2.445,0,0,0,0,0,0,0,0,0,0,0,2.4148,2.415,2.4175,2.4179,2.4294,2.4294,2.4448,2.445,0,0,0,0,0,0,0,0,0,0,0,2.4148,2.4149,2.4151,2.4179,2.4293,2.4294,2.4448,2.4358,0,0,0,0,0,0,0,0,0,0,2.4244,2.4227,2.4149,2.4151,2.418,2.4293,2.4294,2.4353,2.4363,2.44,0,2.4437,0,2.4446,2.4461,2.4462,0,0,0,2.4173,2.4219,2.4243,2.4151,2.4181,2.4293,2.424,2.4359,2.437,2.4414,2.4439,2.4445,2.4449,2.4462,2.4463,2.4699,2.47,0,0,2.4166,2.4173,2.4236,2.4251,2.4237,2.4236,2.4244,2.4366,2.4393,2.444,2.4448,2.4451,2.4463,2.4464,2.4698,2.4699,0,0,0,2.4152,2.4168,2.419,2.4245,2.4266,2.424,2.4248,2.4387,2.4394,2.445,2.4453,2.4464,2.4466,2.4696,2.4698,2.4773,0,0,0,2.4148,2.416,2.4188,2.4192,2.4264,2.4329,2.4268,2.4386,2.4399,2.4452,2.4464,2.4468,2.4695,2.4697,2.4767,2.4806,0,0,0,2.4138,2.4159,2.4178,2.4192,2.4243,2.4326,2.434,2.4388,2.4402,2.4462,2.4468,2.4694,2.4697,2.4763,2.4799,2.487,0,0,0,2.413,2.4242,2.4179,2.4306,2.4242,2.4372,2.4339,2.4436,2.4496,2.4465,2.4695,2.4698,2.4761,2.4794,2.4865,2.4931,2.496,0,0,2.4275,2.426,2.4334,2.4281,2.4424,2.4354,2.4508,2.4556,2.4555,2.465,2.4656,2.4769,2.4798,2.4869,2.5117,2.5139,0,0,0,2.4381,2.4435,2.4471,2.453,2.4571,2.4608,2.4633,2.465,2.4731,2.4606,2.4814,2.4831,2.4872,2.4903,2.4923,2.4957,2.4713,2.4713,2.4712,2.4595,2.4589,2.471,2.4718,2.4774,2.4798,2.4843,2.487,2.4847,2.4896,2.4924,2.5075,2.5112,2.5127,2.5163,2.4959,2.4959,2.4959,2.4959,2.4807,2.488,2.4846,2.4952,2.4944,2.5031,2.5057,2.5038,2.5116,2.5054,2.509,2.5022,2.5152,2.5183,2.4965,2.4964,2.4963,2.4963,2.4962,2.4946,2.498,2.5,2.5084,2.5148,2.515,2.5228,2.5217,2.5207,2.5243,2.527,2.5269,2.5266,2.5257,2.5257,2.5258,2.5258,2.5259,2.5259,2.5082,2.5103,2.5171,2.5223,2.5258,2.5303,2.5327,2.5361,2.5395,2.5381,2.5381,2.5352,2.5166,2.5119,2.5267,2.5266,2.5265,2.5264,2.5263,2.5299,2.5248,2.5353,2.5388,2.5447,2.5511,2.5496,2.5565,2.5591,2.563,2.5592,2.5457,2.544,2.5425,2.5386,2.5594,2.5594,2.5594,2.5594,2.5416,2.5407,2.5511,2.5568,2.5623,2.562,2.5735,2.5754,2.5765,2.578,2.5749,2.5696,2.5681,2.5673,2.5653,2.5616,2.5878,2.5878,2.5879,2.5548,2.5544,2.5646,2.5658,2.5702,2.574,2.5849,2.5914,2.5915,2.589,2.5792,2.578,2.5695,2.5668,2.5641,2.5609,2.5542,0,0]}]]